Showing default

MKA PN2 (RELEK), 40070

Orbit data source: Space-Track

MKA PN2 (RELEK), 40070 is a Commonwealth of Independent States-origin payload satellite in SSO that was launched on Tue, 08 Jul 2014 UTC via a SOYUZ-2-1B launch vehicle from the Tyuratam Missile And Space Complex (TTMTR). Payload-class satellites include a variety of spacecraft equipped with specific instruments for various scientific and technological missions. These include communications satellites like Starlink; space stations such as the ISS; scientific satellites like the Hubble; Earth observation satellites from companies like Planet Labs, Umbra, and HawkEye 360; GPS; miniature CubeSats for education and research; and military/defense satellites.

Loading next visibility...
Identifier
40070, 2014-037B
Orbit
SSO
Last TLE update
12 hours ago
Origin
Manufacturer
Lavochkin
Mission
Non-operational Civil Science
Bus & Motor
KARAT, Unknown motor
Mass
288 kg wet, 288 kg dry
Launch date (UTC)
2014-07-08 (11 years ago)
Launch vehicle
SOYUZ-2-1B
Launch site
Tyuratam Missile And Space Complex (TTMTR)
Object type
Payload
Rocket body
Debris
Shape & HBR
Box, 1 m
Radar Cross Section
1.500 m², Large (>1 m²)

Expand to show TLE details & history

TLE from 12 hours ago
0 MKA PN2 (RELEK)
1 40070U 14037B   25128.88757987  .00000567  00000-0  12819-3 0  9995
2 40070  98.0275 116.3771 0130250 245.4750 113.2823 14.54988060574289
Epoch: 2025-05-08T21:18Z
Definitive object data (Epoch: 2025-05-08T21:18:06.9Z)
Latitude
-0.00007°
Longitude
-70.10327°
Altitude
749.89 km
Speed
7.46 km/s
True Right ascension
07h 45m 30s
True Declination
0° 00' 00"
Sunlit
Object was in daylight at TLE epoch
Visualization TLE readout
Latitude
37.85677°
Longitude
-75.89349°
Altitude
797.611 km
Speed
7.414 km/s
Apparent Right ascension
06h 21m 43s
Apparent Declination
1° 45' 33"
Sunlit
Object is in daylight
Visualization observer readout
Local Sidereal Time
17:11:15
Azimuth
334.518° NNW
Elevation
-45.313°
Doppler factor
1
Orbital elements
Apogee altitude
798.76 km
Perigee altitude
614.206 km
Semi-major axis
7,084.62 km
Eccentricity
0.013025
Inclination
98.0275°
RAAN
116.3771°
Arg. of periapsis
245.475°
True anomaly
114.64442°
Mean anomaly
113.2823°
Eccentric anomaly
113.96425°
Mean motion
3.63972 °/min
BSTAR
0.00012819
Orbital period
98.91 mins
Loading maneuver chart data...
Loading SW <> Apogee altitude chart data...
Loading historical data...
Loading historical data...
Loading historical data...
Loading historical data...
Loading historical data...
Loading historical data...
Loading historical data...

MKA PN2 (RELEK) Visibility forecast

Observer location: undefined°, undefined°

Span
Click to sort rows by Start time (UTC) header in descending order
Start Az.
Max El. time (UTC)
Max El. Az.
Max El.
End time (UTC)
End Az.
7 mins2025-05-09 11:05:59.438Z39.698° NE2025-05-09 11:09:59.438Z95.488° ESE23.001°2025-05-09 11:12:59.438Z142.116° SSE
7 mins2025-05-09 12:44:59.438Z343.15° N2025-05-09 12:47:59.438Z286.891° WNW29.23°2025-05-09 12:51:59.438Z227.941° WSW
7 mins2025-05-09 22:12:59.438Z111.918° ESE2025-05-09 22:15:59.438Z62.932° ENE25.22°2025-05-09 22:19:59.438Z11.313° NNE
8 mins2025-05-09 23:49:59.438Z205.208° SW2025-05-09 23:52:59.438Z251.195° W29.794°2025-05-09 23:57:59.438Z327.991° NNW
|